Regional Weather Roundup
Issued by NWS Green Bay, WI

Home | Current Version | Previous Version | Text Only | Print | Product List | Glossary On
Versions: 1 2 3 4 5 6 7 8 9 10 11 12 13 14 15 16 17 18 19 20 21 22 23 24 25 26 27 28 29 30 31 32 33 34 35 36 37 38 39 40 41 42 43 44 45 46 47 48 49 50
000
ASUS43 KGRB 302000
RWRGRB

NORTH-CENTRAL AND NORTHEAST WISCONSIN REGIONAL WEATHER ROUNDUP
NATIONAL WEATHER SERVICE GREEN BAY WI
300 PM CDT SUN APR 30 2017

WIZ005-009-010>012-018-019-302100-
NORTH CENTRAL WISCONSIN

CITY           SKY/WX    TMP DP  RH WIND       PRES   REMARKS
IRONWOOD       LGT RAIN  43  29  57 N14       30.01F
MANITOWISH WTR NOT AVBL
ARBOR VITAE    NOT AVBL
EAGLE RIVER    NOT AVBL
LAND O LAKES   NOT AVBL
RHINELANDER    CLOUDY    49  30  48 E14       29.94F
PHILLIPS       NOT AVBL
ANTIGO         NOT AVBL
TOMAHAWK       NOT AVBL
MERRILL        NOT AVBL
$$

WIZ013-073-302100-
NORTHEAST WISCONSIN

CITY           SKY/WX    TMP DP  RH WIND       PRES   REMARKS
IRON MOUNTAIN  CLOUDY    47  28  47 E9        29.98F
MARINETTE      NOT AVBL
$$

WIZ017-030-035>037-045-302100-
CENTRAL WISCONSIN

CITY           SKY/WX    TMP DP  RH WIND       PRES   REMARKS
MEDFORD        NOT AVBL
WAUSAU         CLOUDY    45  36  70 E10       29.90F
MOSINEE        CLOUDY    43  37  81 NE21G26   29.91F
MARSHFIELD     CLOUDY    46  35  65 E18G28    29.89R
WISC RAPIDS    CLOUDY    43  37  79 E17G26    29.92R
STEVENS POINT  NOT AVBL
WAUPACA        NOT AVBL
SHAWANO        NOT AVBL
CLINTONVILLE   NOT AVBL
WAUTOMA        CLOUDY    42  37  82 NE15      29.90S
$$

WIZ038-039-048-051-302100-
FOX VALLEY

CITY           SKY/WX    TMP DP  RH WIND       PRES   REMARKS
NWS GREEN BAY  CLOUDY    40  39  97 NE16      29.95F
APPLETON       CLOUDY    39  37  93 NE16G25   29.91F
OSHKOSH        CLOUDY    41  37  86 NE15G24   29.89F
FOND DU LAC    LGT RAIN  42  37  82 NE15G26   29.90S
$$

WIZ022-050-052-302100-
EAST CENTRAL WISCONSIN

CITY           SKY/WX    TMP DP  RH WIND       PRES   REMARKS
EPHRAIM        NOT AVBL
WASHINGTON ISL NOT AVBL
STURGEON BAY   MIX PCPN  37  35  92 NE16G24   29.98F
MANITOWOC      NOT AVBL
SHEBOYGAN      LGT RAIN  40  38  93 NE24G32   29.90F FOG
$$

LMZ563-521-522-541>543-302100-
LAKESHORE

STATION/POSITION TIME  TEMP    WIND        PRES    VSBY  WAVE
                       AIR SEA DIR/SP/G                  HT/PER
                 (UTC) (F)     (DEG/KT/KT) (MB)    (MI)  (FT/S)
SHEBOYGAN LKSHOR 1900   39      20/ 25/ 29 1013.6F
KEWAUNEE LKSHORE 1930   38      40/ 19/ 26 1014.3F
NORTHPORT PIER   1940   36      60/ 17/ 26 1016.3F
N MID LAKE BUOY  1850   36 37   60/ 21/ 25 1018.0F         5/ 6
CHAMBERS ISLAND  1940   37      40/ 14/ 19 1015.9F
MENOMINEE LKSHOR 1930   38      40/ 23/ 27 1015.0F
$$




USA.gov is the U.S. government's official web portal to all federal, state and local government web resources and services.